| time (UTC) | temp C | wind direction | speed KPH | gust KPH | rain 1hr cm | rain 24hr cm | rain mn cm | humidity % | barometer mb |
| 20260505171608 | 12 | 256 | 1.6 | 9.7 | 0.00 | 0.15 | 0.15 | 82 | 1013.9 |
| 20260505171101 | 12 | 235 | 0.0 | 6.4 | 0.00 | 0.15 | 0.15 | 82 | 1013.9 |
| 20260505170556 | 12 | 295 | 0.0 | 6.4 | 0.00 | 0.15 | 0.15 | 84 | 1013.8 |
| 20260505170051 | 12 | 257 | 1.6 | 6.4 | 0.00 | 0.15 | 0.15 | 84 | 1013.8 |
| 20260505165806 | 12 | 261 | 1.6 | 12.9 | 0.00 | 0.15 | 0.15 | 83 | 1014.0 |
| 20260505165038 | 12 | 244 | 1.6 | 12.9 | 0.00 | 0.15 | 0.15 | 85 | 1013.9 |
| 20260505164533 | 12 | 219 | 3.2 | 12.9 | 0.00 | 0.15 | 0.15 | 85 | 1013.9 |
| 20260505164025 | 12 | 242 | 4.8 | 12.9 | 0.00 | 0.15 | 0.15 | 84 | 1013.8 |
| 20260505163520 | 12 | 270 | 1.6 | 11.3 | 0.00 | 0.15 | 0.15 | 84 | 1013.9 |
| 20260505163014 | 12 | 250 | 1.6 | 8.0 | 0.00 | 0.15 | 0.15 | 86 | 1013.8 |
| 20260505162508 | 12 | 143 | 1.6 | 6.4 | 0.00 | 0.15 | 0.15 | 86 | 1013.7 |
| 20260505162002 | 12 | 238 | 0.0 | 3.2 | 0.00 | 0.15 | 0.15 | 86 | 1013.8 |
| 20260505161456 | 12 | 267 | 1.6 | 14.5 | 0.00 | 0.15 | 0.15 | 87 | 1013.6 |
| 20260505160949 | 12 | 307 | 1.6 | 14.5 | 0.00 | 0.15 | 0.15 | 86 | 1013.4 |
| 20260505160443 | 12 | 236 | 3.2 | 14.5 | 0.00 | 0.15 | 0.15 | 88 | 1013.3 |
| 20260505152902 | 11 | 269 | 1.6 | 14.5 | 0.00 | 0.15 | 0.15 | 91 | 1013.3 |
| 20260505152118 | 11 | 252 | 1.6 | 14.5 | 0.00 | 0.15 | 0.15 | 92 | 1013.1 |
| 20260505151344 | 11 | 229 | 1.6 | 11.3 | 0.00 | 0.15 | 0.15 | 93 | 1013.1 |
| 20260505150838 | 11 | 273 | 3.2 | 11.3 | 0.00 | 0.15 | 0.15 | 93 | 1013.0 |
| 20260505150332 | 11 | 273 | 1.6 | 8.0 | 0.00 | 0.15 | 0.15 | 94 | 1012.9 |
| 20260505140220 | 11 | 229 | 0.0 | 8.0 | 0.00 | 0.15 | 0.15 | 96 | 1012.6 |
| 20260505130108 | 11 | 256 | 0.0 | 11.3 | 0.00 | 0.15 | 0.15 | 95 | 1012.0 |
| 20260505124550 | 11 | 236 | 3.2 | 12.9 | 0.00 | 0.15 | 0.15 | 95 | 1012.1 |
| 20260505124310 | 11 | 261 | 1.6 | 12.9 | 0.00 | 0.15 | 0.15 | 95 | 1012.0 |
| 20260505123537 | 11 | 271 | 1.6 | 12.9 | 0.00 | 0.15 | 0.15 | 95 | 1011.9 |
| 20260505123032 | 11 | 251 | 1.6 | 12.9 | 0.00 | 0.15 | 0.15 | 95 | 1011.9 |
| 20260505122527 | 11 | 237 | 0.0 | 6.4 | 0.00 | 0.15 | 0.15 | 96 | 1011.9 |
| 20260505122019 | 10 | 274 | 0.0 | 1.6 | 0.00 | 0.15 | 0.15 | 95 | 1011.9 |
| 20260505121513 | 10 | 235 | 0.0 | 0.0 | 0.03 | 0.15 | 0.15 | 95 | 1011.9 |
| 20260505121009 | 10 | 242 | 0.0 | 0.0 | 0.03 | 0.15 | 0.15 | 95 | 1011.9 |
| 20260505120722 | 10 | 242 | 0.0 | 0.0 | 0.05 | 0.15 | 0.15 | 95 | 1011.9 |
| 20260505120214 | 10 | 242 | 0.0 | 0.0 | 0.08 | 0.15 | 0.15 | 95 | 1011.9 |
| 20260505115449 | 10 | 242 | 0.0 | 3.2 | 0.08 | 0.15 | 0.15 | 95 | 1011.9 |
| 20260505114943 | 10 | 242 | 0.0 | 3.2 | 0.08 | 0.15 | 0.15 | 95 | 1011.9 |
| 20260505114442 | 10 | 242 | 0.0 | 3.2 | 0.08 | 0.15 | 0.15 | 95 | 1011.9 |
| 20260505113939 | 10 | 234 | 0.0 | 3.2 | 0.08 | 0.15 | 0.15 | 95 | 1012.0 |
| 20260505113701 | 10 | 229 | 0.0 | 1.6 | 0.08 | 0.15 | 0.15 | 95 | 1012.0 |
| 20260505112935 | 10 | 262 | 0.0 | 1.6 | 0.08 | 0.15 | 0.15 | 95 | 1012.0 |
| 20260505112434 | 10 | 285 | 0.0 | 0.0 | 0.08 | 0.15 | 0.15 | 95 | 1012.0 |
| 20260505111931 | 11 | 315 | 0.0 | 0.0 | 0.08 | 0.13 | 0.13 | 95 | 1012.0 |
| 20260505111428 | 11 | 330 | 0.0 | 3.2 | 0.08 | 0.13 | 0.13 | 95 | 1011.9 |
| 20260505110929 | 11 | 282 | 0.0 | 3.2 | 0.08 | 0.13 | 0.13 | 95 | 1012.1 |
| 20260505110432 | 11 | 287 | 0.0 | 4.8 | 0.08 | 0.10 | 0.13 | 95 | 1012.1 |
| 20260505110149 | 11 | 247 | 0.0 | 4.8 | 0.05 | 0.08 | 0.08 | 95 | 1012.2 |
| 20260505101922 | 11 | 261 | 0.0 | 0.0 | 0.05 | 0.05 | 0.05 | 94 | 1012.0 |
| 20260505101421 | 11 | 249 | 0.0 | 0.0 | 0.05 | 0.05 | 0.05 | 94 | 1012.0 |
| 20260505100924 | 11 | 223 | 0.0 | 0.0 | 0.03 | 0.03 | 0.03 | 94 | 1012.1 |
| 20260505100418 | 11 | 246 | 0.0 | 0.0 | 0.03 | 0.03 | 0.03 | 94 | 1012.0 |
| 20260505095912 | 11 | 246 | 0.0 | 0.0 | 0.03 | 0.03 | 0.03 | 94 | 1012.0 |
| 20260505095406 | 11 | 246 | 0.0 | 0.0 | 0.03 | 0.03 | 0.03 | 94 | 1012.1 |
| 20260505095122 | 11 | 246 | 0.0 | 0.0 | 0.00 | 0.00 | 0.00 | 94 | 1012.2 |
| 20260505094354 | 11 | 266 | 0.0 | 0.0 | 0.00 | 0.00 | 0.00 | 94 | 1012.1 |
| 20260505093847 | 11 | 282 | 0.0 | 0.0 | 0.00 | 0.00 | 0.00 | 94 | 1012.1 |
| 20260505093342 | 11 | 302 | 0.0 | 0.0 | 0.00 | 0.00 | 0.00 | 94 | 1012.2 |
| 20260505092836 | 11 | 302 | 0.0 | 0.0 | 0.00 | 0.00 | 0.00 | 94 | 1012.3 |
| 20260505092330 | 11 | 308 | 0.0 | 0.0 | 0.00 | 0.00 | 0.00 | 93 | 1012.4 |
| 20260505091824 | 11 | 315 | 0.0 | 0.0 | 0.00 | 0.00 | 0.00 | 93 | 1012.3 |
| 20260505091318 | 11 | 288 | 0.0 | 0.0 | 0.00 | 0.00 | 0.00 | 93 | 1012.4 |
| 20260505090812 | 11 | 288 | 0.0 | 0.0 | 0.00 | 0.00 | 0.00 | 93 | 1012.5 |
| 20260505090306 | 11 | 288 | 0.0 | 0.0 | 0.00 | 0.00 | 0.00 | 93 | 1012.6 |
| 20260505085801 | 11 | 280 | 0.0 | 0.0 | 0.00 | 0.00 | 0.00 | 93 | 1012.7 |
| 20260505085517 | 11 | 280 | 0.0 | 0.0 | 0.00 | 0.00 | 0.00 | 93 | 1012.8 |
| 20260505084748 | 11 | 286 | 0.0 | 0.0 | 0.00 | 0.00 | 0.00 | 93 | 1012.7 |
| 20260505084241 | 11 | 286 | 0.0 | 0.0 | 0.00 | 0.00 | 0.00 | 94 | 1012.7 |
| 20260505083736 | 11 | 286 | 0.0 | 0.0 | 0.00 | 0.00 | 0.00 | 94 | 1012.8 |
| 20260505083230 | 11 | 286 | 0.0 | 0.0 | 0.00 | 0.00 | 0.00 | 94 | 1012.9 |
| 20260505082724 | 11 | 286 | 0.0 | 0.0 | 0.00 | 0.00 | 0.00 | 94 | 1012.9 |
| 20260505082449 | 11 | 286 | 0.0 | 0.0 | 0.00 | 0.00 | 0.00 | 94 | 1013.0 |
| 20260505081712 | 11 | 286 | 0.0 | 0.0 | 0.00 | 0.00 | 0.00 | 94 | 1013.0 |
| 20260505081206 | 11 | 286 | 0.0 | 0.0 | 0.00 | 0.00 | 0.00 | 93 | 1013.1 |
| 20260505080700 | 11 | 286 | 0.0 | 0.0 | 0.00 | 0.00 | 0.00 | 94 | 1013.1 |
| 20260505080154 | 11 | 355 | 0.0 | 0.0 | 0.00 | 0.00 | 0.00 | 94 | 1013.1 |
| 20260505075916 | 11 | 302 | 0.0 | 3.2 | 0.00 | 0.00 | 0.00 | 94 | 1013.3 |
| 20260505075144 | 11 | 297 | 0.0 | 3.2 | 0.00 | 0.00 | 0.00 | 94 | 1013.2 |
| 20260505074636 | 11 | 0 | 0.0 | 0.0 | 0.00 | 0.00 | 0.00 | 94 | 1013.1 |
| 20260505074352 | 11 | 0 | 0.0 | 0.0 | 0.00 | 0.00 | 0.00 | 94 | 1013.2 |
| 20260505073623 | 11 | 238 | 0.0 | 0.0 | 0.00 | 0.00 | 0.00 | 94 | 1013.3 |
| 20260505073339 | 11 | 238 | 0.0 | 0.0 | 0.00 | 0.00 | 0.00 | 93 | 1013.3 |
| 20260505072843 | 11 | 238 | 0.0 | 0.0 | 0.00 | 0.00 | 0.00 | 93 | 1013.4 |
| 20260505072106 | 11 | 238 | 0.0 | 0.0 | 0.00 | 0.00 | 0.00 | 93 | 1013.4 |
| 20260505071558 | 11 | 238 | 0.0 | 0.0 | 0.00 | 0.00 | 0.00 | 93 | 1013.4 |
| 20260505071052 | 11 | 238 | 0.0 | 0.0 | 0.00 | 0.00 | 0.00 | 93 | 1013.4 |
| 20260505070553 | 11 | 238 | 0.0 | 0.0 | 0.00 | 0.00 | 0.00 | 93 | 1013.4 |
| 20260505070049 | 11 | 238 | 0.0 | 0.0 | 0.00 | 0.00 | 0.00 | 92 | 1013.4 |
| 20260505065546 | 11 | 238 | 0.0 | 0.0 | 0.00 | 0.00 | 0.03 | 92 | 1013.4 |
| 20260505065307 | 11 | 238 | 0.0 | 0.0 | 0.00 | 0.00 | 0.03 | 92 | 1013.4 |
| 20260505064547 | 11 | 238 | 0.0 | 1.6 | 0.00 | 0.00 | 0.03 | 92 | 1013.7 |
| 20260505064045 | 11 | 238 | 0.0 | 1.6 | 0.00 | 0.00 | 0.03 | 92 | 1013.7 |
| 20260505063546 | 11 | 238 | 0.0 | 1.6 | 0.00 | 0.00 | 0.03 | 92 | 1013.6 |
| 20260505063047 | 11 | 239 | 0.0 | 1.6 | 0.00 | 0.00 | 0.03 | 92 | 1013.7 |
| 20260505062547 | 11 | 248 | 0.0 | 0.0 | 0.00 | 0.00 | 0.03 | 92 | 1013.7 |
| 20260505062048 | 11 | 248 | 0.0 | 6.4 | 0.00 | 0.00 | 0.03 | 92 | 1013.7 |
| 20260505061607 | 12 | 247 | 0.0 | 6.4 | 0.00 | 0.00 | 0.03 | 92 | 1013.7 |
| 20260505061042 | 12 | 255 | 0.0 | 6.4 | 0.00 | 0.00 | 0.03 | 92 | 1013.8 |
| 20260505060544 | 12 | 255 | 0.0 | 6.4 | 0.00 | 0.00 | 0.03 | 91 | 1013.8 |
| 20260505060301 | 12 | 227 | 0.0 | 4.8 | 0.00 | 0.00 | 0.03 | 91 | 1013.9 |
| 20260505060028 | 12 | 238 | 0.0 | 4.8 | 0.00 | 0.00 | 0.03 | 91 | 1013.9 |
| 20260505055043 | 12 | 261 | 0.0 | 0.0 | 0.00 | 0.00 | 0.03 | 91 | 1013.9 |
| 20260505054543 | 12 | 267 | 0.0 | 3.2 | 0.00 | 0.00 | 0.03 | 91 | 1013.9 |
| 20260505054041 | 12 | 267 | 0.0 | 3.2 | 0.00 | 0.00 | 0.03 | 91 | 1013.9 |
| 20260505053812 | 12 | 267 | 0.0 | 3.2 | 0.00 | 0.00 | 0.03 | 90 | 1013.9 |
| 20260505053039 | 12 | 238 | 0.0 | 3.2 | 0.00 | 0.00 | 0.03 | 90 | 1014.0 |
| 20260505052539 | 12 | 247 | 0.0 | 3.2 | 0.00 | 0.00 | 0.03 | 89 | 1014.1 |
| 20260505052038 | 12 | 242 | 0.0 | 9.7 | 0.00 | 0.00 | 0.03 | 88 | 1014.2 |
| 20260505051539 | 12 | 244 | 0.0 | 9.7 | 0.00 | 0.00 | 0.03 | 88 | 1014.1 |
| 20260505051300 | 12 | 221 | 1.6 | 11.3 | 0.00 | 0.00 | 0.03 | 87 | 1014.1 |
| 20260505050539 | 12 | 240 | 1.6 | 11.3 | 0.00 | 0.00 | 0.03 | 86 | 1014.0 |
| 20260505041535 | 12 | 246 | 1.6 | 16.1 | 0.00 | 0.00 | 0.03 | 84 | 1014.1 |
| 20260505041035 | 12 | 243 | 3.2 | 16.1 | 0.00 | 0.00 | 0.03 | 84 | 1014.0 |
| 20260505040535 | 13 | 244 | 1.6 | 9.7 | 0.00 | 0.00 | 0.03 | 85 | 1014.0 |
| 20260505040030 | 13 | 246 | 3.2 | 9.7 | 0.00 | 0.00 | 0.03 | 85 | 1014.0 |
| 20260505035531 | 13 | 257 | 3.2 | 11.3 | 0.00 | 0.00 | 0.03 | 85 | 1013.9 |
| 20260505035030 | 13 | 214 | 3.2 | 12.9 | 0.00 | 0.00 | 0.03 | 85 | 1013.9 |
| 20260505034530 | 13 | 223 | 3.2 | 12.9 | 0.00 | 0.00 | 0.03 | 84 | 1013.9 |
| 20260505034248 | 13 | 233 | 1.6 | 12.9 | 0.00 | 0.00 | 0.03 | 84 | 1013.8 |
| 20260505033531 | 13 | 252 | 1.6 | 12.9 | 0.00 | 0.00 | 0.03 | 84 | 1013.9 |
| 20260505033030 | 13 | 248 | 3.2 | 14.5 | 0.00 | 0.00 | 0.03 | 83 | 1013.8 |
| 20260505032755 | 13 | 242 | 3.2 | 16.1 | 0.00 | 0.00 | 0.03 | 83 | 1013.9 |
| 20260505032031 | 13 | 253 | 3.2 | 16.1 | 0.00 | 0.00 | 0.03 | 83 | 1013.8 |
| 20260505031759 | 13 | 265 | 3.2 | 16.1 | 0.00 | 0.00 | 0.03 | 83 | 1013.7 |
| 20260505031251 | 13 | 259 | 4.8 | 16.1 | 0.00 | 0.00 | 0.03 | 83 | 1013.7 |
| 20260505030529 | 13 | 252 | 3.2 | 12.9 | 0.00 | 0.00 | 0.03 | 83 | 1013.6 |
| 20260505030030 | 13 | 244 | 3.2 | 14.5 | 0.00 | 0.00 | 0.03 | 82 | 1013.7 |
| 20260505025531 | 13 | 232 | 3.2 | 14.5 | 0.00 | 0.00 | 0.03 | 80 | 1013.4 |
| 20260505025030 | 13 | 237 | 3.2 | 14.5 | 0.00 | 0.00 | 0.03 | 80 | 1013.3 |
| 20260505024531 | 13 | 240 | 6.4 | 19.3 | 0.00 | 0.00 | 0.03 | 80 | 1013.3 |
| 20260505024029 | 13 | 245 | 6.4 | 19.3 | 0.00 | 0.00 | 0.03 | 80 | 1013.4 |
| 20260505023528 | 13 | 230 | 8.0 | 19.3 | 0.00 | 0.00 | 0.03 | 79 | 1013.4 |
| 20260505023025 | 13 | 257 | 8.0 | 19.3 | 0.00 | 0.00 | 0.03 | 79 | 1013.4 |
| 20260505022526 | 13 | 254 | 6.4 | 19.3 | 0.00 | 0.00 | 0.03 | 78 | 1013.4 |
| 20260505022026 | 13 | 237 | 8.0 | 20.9 | 0.00 | 0.00 | 0.03 | 78 | 1013.7 |
| 20260505022015 | 13 | 246 | 8.0 | 20.9 | 0.00 | 0.00 | 0.03 | 77 | 1013.6 |
| 20260505021027 | 13 | 236 | 6.4 | 19.3 | 0.00 | 0.00 | 0.03 | 77 | 1013.6 |
| 20260505020526 | 13 | 209 | 6.4 | 19.3 | 0.00 | 0.00 | 0.03 | 77 | 1013.6 |
| 20260505020027 | 13 | 232 | 6.4 | 19.3 | 0.00 | 0.00 | 0.03 | 76 | 1013.4 |
| 20260505015528 | 13 | 259 | 6.4 | 19.3 | 0.00 | 0.00 | 0.03 | 75 | 1013.7 |
| 20260505015028 | 14 | 233 | 6.4 | 19.3 | 0.00 | 0.00 | 0.03 | 75 | 1013.8 |
| 20260505014529 | 14 | 209 | 6.4 | 17.7 | 0.00 | 0.00 | 0.03 | 74 | 1013.7 |
| 20260505014248 | 15 | 242 | 4.8 | 17.7 | 0.00 | 0.00 | 0.03 | 72 | 1013.8 |
| 20260505013517 | 15 | 219 | 6.4 | 22.5 | 0.00 | 0.00 | 0.03 | 71 | 1013.8 |
| 20260505013015 | 15 | 228 | 8.0 | 22.5 | 0.00 | 0.00 | 0.03 | 70 | 1013.9 |
| 20260505012517 | 15 | 233 | 6.4 | 17.7 | 0.00 | 0.00 | 0.03 | 68 | 1013.6 |
| 20260505012018 | 15 | 188 | 6.4 | 17.7 | 0.00 | 0.00 | 0.03 | 69 | 1013.7 |
| 20260505011520 | 15 | 219 | 6.4 | 19.3 | 0.00 | 0.00 | 0.03 | 68 | 1013.7 |
| 20260505011246 | 15 | 248 | 8.0 | 24.1 | 0.00 | 0.00 | 0.03 | 68 | 1013.7 |
| 20260505010512 | 15 | 240 | 9.7 | 24.1 | 0.00 | 0.00 | 0.03 | 68 | 1013.8 |
| 20260505010011 | 15 | 213 | 11.3 | 24.1 | 0.00 | 0.00 | 0.03 | 66 | 1013.8 |
| 20260505005511 | 15 | 259 | 11.3 | 24.1 | 0.00 | 0.00 | 0.03 | 65 | 1013.7 |
| 20260505005009 | 16 | 241 | 11.3 | 24.1 | 0.00 | 0.00 | 0.03 | 63 | 1013.7 |
| 20260505004511 | 16 | 246 | 9.7 | 24.1 | 0.00 | 0.00 | 0.03 | 66 | 1013.4 |
| 20260505004007 | 16 | 241 | 8.0 | 24.1 | 0.00 | 0.00 | 0.03 | 65 | 1013.6 |
| 20260505003506 | 16 | 236 | 9.7 | 24.1 | 0.00 | 0.00 | 0.03 | 65 | 1013.4 |
| 20260505003003 | 16 | 281 | 9.7 | 24.1 | 0.00 | 0.00 | 0.03 | 63 | 1013.7 |
| 20260505002505 | 16 | 254 | 9.7 | 24.1 | 0.00 | 0.00 | 0.03 | 63 | 1013.6 |
| 20260505002234 | 16 | 259 | 9.7 | 19.3 | 0.00 | 0.00 | 0.03 | 60 | 1013.6 |
| 20260505001503 | 16 | 269 | 9.7 | 20.9 | 0.00 | 0.00 | 0.03 | 61 | 1013.4 |
| 20260505001001 | 16 | 253 | 11.3 | 20.9 | 0.00 | 0.00 | 0.03 | 60 | 1013.7 |
| 20260505000502 | 16 | 257 | 9.7 | 20.9 | 0.00 | 0.00 | 0.03 | 59 | 1013.6 |
| 20260504235959 | 17 | 257 | 8.0 | 19.3 | 0.00 | 0.00 | 0.03 | 61 | 1013.6 |
| 20260504235653 | 16 | 196 | 11.3 | 25.7 | 0.00 | 0.00 | 0.03 | 64 | 1013.7 |
| 20260504235543 | 17 | 273 | 8.0 | 25.7 | 0.00 | 0.00 | 0.03 | 62 | 1013.7 |
| 20260504234718 | 16 | 234 | 12.9 | 25.7 | 0.00 | 0.00 | 0.03 | 64 | 1013.4 |
| 20260504234217 | 16 | 279 | 12.9 | 25.7 | 0.00 | 0.00 | 0.03 | 63 | 1013.3 |
| 20260504233937 | 16 | 259 | 11.3 | 24.1 | 0.00 | 0.00 | 0.03 | 62 | 1013.3 |
| 20260504232952 | 16 | 242 | 9.7 | 27.4 | 0.00 | 0.00 | 0.03 | 61 | 1013.3 |
| 20260504232452 | 16 | 243 | 11.3 | 27.4 | 0.00 | 0.00 | 0.03 | 62 | 1013.3 |
| 20260504231952 | 17 | 242 | 11.3 | 27.4 | 0.00 | 0.00 | 0.03 | 60 | 1013.3 |
| 20260504231723 | 17 | 259 | 9.7 | 27.4 | 0.00 | 0.00 | 0.03 | 57 | 1013.4 |
| 20260504230947 | 18 | 240 | 8.0 | 29.0 | 0.00 | 0.00 | 0.03 | 57 | 1013.3 |
| 20260504230443 | 18 | 236 | 9.7 | 29.0 | 0.00 | 0.00 | 0.03 | 57 | 1013.4 |
| 20260504230210 | 18 | 261 | 9.7 | 29.0 | 0.00 | 0.00 | 0.03 | 56 | 1013.4 |
| 20260504225437 | 18 | 234 | 9.7 | 29.0 | 0.00 | 0.00 | 0.03 | 56 | 1013.2 |
| 20260504224932 | 17 | 211 | 14.5 | 29.0 | 0.00 | 0.00 | 0.03 | 56 | 1013.1 |
| 20260504224432 | 17 | 230 | 12.9 | 29.0 | 0.00 | 0.00 | 0.03 | 56 | 1013.3 |
| 20260504223929 | 17 | 238 | 9.7 | 25.7 | 0.00 | 0.00 | 0.03 | 56 | 1013.4 |
| 20260504223429 | 17 | 278 | 9.7 | 25.7 | 0.00 | 0.00 | 0.03 | 53 | 1013.4 |
| 20260504222926 | 18 | 244 | 9.7 | 27.4 | 0.00 | 0.00 | 0.03 | 55 | 1013.4 |
| 20260504222648 | 18 | 268 | 9.7 | 27.4 | 0.00 | 0.00 | 0.03 | 55 | 1013.6 |
| 20260504221926 | 18 | 253 | 9.7 | 27.4 | 0.00 | 0.00 | 0.03 | 54 | 1013.8 |
| 20260504221428 | 18 | 240 | 9.7 | 27.4 | 0.00 | 0.00 | 0.03 | 54 | 1013.8 |
| 20260504220924 | 18 | 254 | 9.7 | 27.4 | 0.00 | 0.00 | 0.03 | 54 | 1013.9 |
| 20260504220425 | 18 | 275 | 9.7 | 27.4 | 0.00 | 0.00 | 0.03 | 52 | 1014.0 |
| 20260504215924 | 18 | 254 | 9.7 | 25.7 | 0.00 | 0.00 | 0.03 | 53 | 1014.1 |
| 20260504215425 | 18 | 200 | 8.0 | 25.7 | 0.00 | 0.00 | 0.03 | 53 | 1014.1 |
| 20260504215147 | 18 | 237 | 6.4 | 25.7 | 0.00 | 0.00 | 0.03 | 53 | 1014.1 |
| 20260504214423 | 18 | 233 | 8.0 | 25.7 | 0.00 | 0.00 | 0.03 | 53 | 1014.1 |
| 20260504213923 | 18 | 240 | 8.0 | 20.9 | 0.00 | 0.00 | 0.03 | 53 | 1014.3 |
| 20260504213646 | 18 | 261 | 6.4 | 20.9 | 0.00 | 0.00 | 0.03 | 54 | 1014.2 |
| 20260504212919 | 17 | 0.0 | 0.0 | 0.00 | 0.00 | 0.03 | 55 | 1014.2 | |
| 20260504212635 | -17 | 0.0 | 0.0 | 0.00 | 0.00 | 0.03 | 1014.3 |